TimeCST,TemperatureF,Dew PointF,Humidity,Sea Level PressureIn,VisibilityMPH,Wind Direction,Wind SpeedMPH,Gust SpeedMPH,PrecipitationIn,Events,Conditions,WindDirDegrees,DateUTC
12:00 AM,-33,-40,49,30.68,15,Calm,Calm,,,,,,2013-01-24 06:00:00
12:00 AM,-32.8,-40.0,68,30.68,15.0,Calm,Calm,-,N/A,,Clear,0,2013-01-24 06:00:00
1:00 AM,-31.0,-38.2,68,30.67,15.0,Calm,Calm,-,N/A,,Clear,0,2013-01-24 07:00:00
2:00 AM,-34.6,-41.8,68,30.66,15.0,Calm,Calm,-,N/A,,Clear,0,2013-01-24 08:00:00
3:00 AM,-36.4,-43.6,67,30.65,15.0,Calm,Calm,-,N/A,,Clear,0,2013-01-24 09:00:00
4:00 AM,-34.6,-41.8,68,30.65,15.0,Calm,Calm,-,N/A,,Clear,0,2013-01-24 10:00:00
5:00 AM,-36.4,-43.6,67,30.63,15.0,West,3.5,-,N/A,,Clear,260,2013-01-24 11:00:00
6:00 AM,-40,-45,59,30.62,15,West,3.5,,,,,260,2013-01-24 12:00:00
6:00 AM,-40.0,-45.4,74,30.62,15.0,West,4.6,-,N/A,,Clear,260,2013-01-24 12:00:00
7:00 AM,-40.0,-47.2,67,30.62,15.0,Calm,Calm,-,N/A,,Clear,0,2013-01-24 13:00:00
7:11 AM,-9999,-9999,N/A,-9999,15.0,Calm,Calm,-,N/A,,Clear,0,2013-01-24 13:11:00
8:00 AM,-38.2,-43.6,74,30.60,15.0,Calm,Calm,-,N/A,,Scattered Clouds,0,2013-01-24 14:00:00
9:00 AM,-38.2,-43.6,74,30.58,10.0,Calm,Calm,-,N/A,,Mostly Cloudy,0,2013-01-24 15:00:00
10:00 AM,-34.6,-41.8,68,30.56,10.0,Calm,Calm,-,N/A,,Mostly Cloudy,0,2013-01-24 16:00:00
11:00 AM,-29.2,-36.4,68,30.54,12.0,Calm,Calm,-,N/A,,Mostly Cloudy,0,2013-01-24 17:00:00
12:00 PM,-25,-32,51,30.52,12,Calm,Calm,,,Snow,Snow,,2013-01-24 18:00:00
12:00 PM,-25.6,-32.8,69,30.52,12.0,Calm,Calm,-,N/A,,Mostly Cloudy,0,2013-01-24 18:00:00
1:00 PM,-18.4,-27.4,63,30.48,15.0,SE,3.5,-,N/A,,Mostly Cloudy,140,2013-01-24 19:00:00
2:00 PM,-16.6,-27.4,58,30.45,15.0,SSE,3.5,-,N/A,,Mostly Cloudy,150,2013-01-24 20:00:00
3:00 PM,-16.6,-27.4,58,30.41,15.0,ESE,4.6,-,N/A,,Mostly Cloudy,110,2013-01-24 21:00:00
4:00 PM,-14.8,-25.6,58,30.39,15.0,ESE,3.5,-,N/A,,Mostly Cloudy,110,2013-01-24 22:00:00
5:00 PM,-16.6,-25.6,64,30.38,15.0,East,3.5,-,N/A,,Mostly Cloudy,90,2013-01-24 23:00:00
6:00 PM,-18,-27,46,30.36,15,East,4.6,,,Snow,Snow,90,2013-01-25 00:00:00
6:00 PM,-18.4,-27.4,63,30.36,15.0,East,4.6,-,N/A,,Mostly Cloudy,90,2013-01-25 00:00:00
7:00 PM,-18.4,-27.4,63,30.35,15.0,East,3.5,-,N/A,,Mostly Cloudy,80,2013-01-25 01:00:00
8:00 PM,-16.6,-27.4,58,30.34,15.0,East,4.6,-,N/A,,Mostly Cloudy,80,2013-01-25 02:00:00
9:00 PM,-22.0,-31.0,63,30.34,15.0,Calm,Calm,-,N/A,,Mostly Cloudy,0,2013-01-25 03:00:00
10:00 PM,-25.6,-32.8,69,30.33,15.0,NE,4.6,-,N/A,,Partly Cloudy,50,2013-01-25 04:00:00
11:00 PM,-27.4,-34.6,69,30.33,15.0,Calm,Calm,-,N/A,,Partly Cloudy,0,2013-01-25 05:00:00